Date_and_time,latitude,longitude,wind_speed,RelWindDirFrom,WindDirFrom,air_pressure,air_temperature,relative_humidity,Temp,platform_speed_wrt_ground,air_pressure_at_mean_sea_level,platform_orientation
2019-12-22 00:00,50.630455,-96.9807633333333,6.0,7.1,358,987.58,-8.9,88,0.77,0.0,1016.27,90.0
2019-12-22 00:10,50.6304566666667,-96.9807616666667,5.6,7.3,7,987.45,-9.0,90,0.77,0.0,1016.14,90.0
2019-12-22 00:20,50.6304566666667,-96.9807633333333,5.7,7.9,4,987.44,-9.0,91,0.78,0.0,1016.15,90.0
2019-12-22 00:30,50.6304566666667,-96.980765,3.8,5.6,338,987.71,-9.1,90,0.79,0.0,1016.47,90.0
2019-12-22 00:40,50.6304483333333,-96.9807483333333,2.7,4.4,332,987.80,-9.2,90,0.79,0.0,1016.58,90.0
2019-12-22 00:50,50.63045,-96.9807583333333,3.5,4.5,358,987.56,-9.3,90,0.80,0.0,1016.35,90.0
2019-12-22 01:00,50.6304533333333,-96.9807616666667,3.2,4.5,345,987.64,-9.4,91,0.80,0.0,1016.44,125.3
2019-12-22 01:10,50.630455,-96.980765,3.2,4.0,340,987.71,-9.5,91,0.80,0.0,1016.53,125.3
2019-12-22 01:20,50.630455,-96.9807683333333,2.8,4.3,345,987.62,-9.7,91,0.80,0.0,1016.45,125.3
2019-12-22 01:30,50.6304666666667,-96.980765,3.9,4.9,350,987.46,-9.8,92,0.81,0.0,1016.30,125.3
2019-12-22 01:40,50.6304633333333,-96.9807783333333,5.1,6.3,2,987.36,-9.8,92,0.81,0.0,1016.21,125.3
2019-12-22 01:50,50.6304533333333,-96.980715,6.0,7.4,358,987.52,-9.8,93,0.80,0.0,1016.37,125.3
2019-12-22 02:00,50.6304633333333,-96.9807616666667,6.0,7.2,357,987.66,-9.8,94,0.79,0.0,1016.52,360.0
2019-12-22 02:10,50.6304366666667,-96.9807133333333,6.0,7.8,9,987.45,-9.7,94,0.79,0.0,1016.30,360.0
2019-12-22 02:20,50.6304633333333,-96.98076,6.5,7.8,6,987.66,-9.7,95,0.79,0.0,1016.53,360.0
2019-12-22 02:30,50.63046,-96.9807583333333,6.5,7.8,22,987.38,-9.5,95,0.79,0.0,1016.24,360.0
2019-12-22 02:40,50.63046,-96.980765,6.2,7.5,31,987.07,-9.5,96,0.79,0.0,1015.91,360.0
2019-12-22 02:50,50.6304583333333,-96.9807666666667,7.2,9.1,43,986.76,-9.2,96,0.79,0.0,1015.59,360.0
2019-12-22 03:00,50.6304583333333,-96.9807683333333,5.9,7.3,56,986.76,-9.0,96,0.80,0.0,1015.58,360.0
2019-12-22 03:10,50.6304566666667,-96.980765,4.9,5.9,61,986.86,-9.0,96,0.80,0.0,1015.69,360.0
2019-12-22 03:20,50.6304233333333,-96.9807516666667,5.1,6.4,56,986.92,-9.0,96,0.79,0.0,1015.76,360.0
2019-12-22 03:30,50.6304866666667,-96.9807833333333,6.9,9.0,54,986.58,-9.0,96,0.79,0.0,1015.41,360.0
2019-12-22 03:40,50.63046,-96.980765,7.2,9.1,52,986.45,-9.0,96,0.79,0.0,1015.27,360.0
2019-12-22 03:50,50.63041,-96.98076,7.7,8.9,57,986.10,-9.0,96,0.78,0.0,1014.91,360.0
2019-12-22 04:00,50.6304433333333,-96.980775,6.8,8.0,69,986.05,-8.9,97,0.78,0.0,1014.85,216.6
2019-12-22 04:10,50.63045,-96.9807666666667,5.9,7.3,75,986.05,-8.9,97,0.78,0.0,1014.86,216.6
2019-12-22 04:20,50.6304566666667,-96.98078,6.1,7.5,69,986.00,-8.8,97,0.79,0.0,1014.79,216.6
2019-12-22 04:30,50.6304566666667,-96.9807716666667,5.7,7.0,70,986.15,-8.8,98,0.78,0.0,1014.94,216.6
2019-12-22 04:40,50.6304566666667,-96.9807683333333,5.8,8.2,86,986.09,-8.6,98,0.78,0.0,1014.85,216.6
2019-12-22 04:50,50.6304566666667,-96.9807666666667,4.7,5.9,92,986.01,-8.6,97,0.78,0.0,1014.76,216.6
2019-12-22 05:00,50.6304566666667,-96.9807666666667,5.3,7.4,95,985.88,-8.5,97,0.78,0.0,1014.62,360.0
2019-12-22 05:10,50.6304566666667,-96.980765,5.3,6.4,95,985.71,-8.5,97,0.78,0.0,1014.44,360.0
2019-12-22 05:20,50.6304566666667,-96.980765,4.6,5.6,101,985.84,-8.5,96,0.78,0.0,1014.58,360.0
2019-12-22 05:30,50.6304566666667,-96.9807666666667,3.9,5.3,88,985.80,-8.5,96,0.78,0.0,1014.54,360.0
2019-12-22 05:40,50.6304566666667,-96.980765,3.6,4.6,82,985.55,-8.6,96,0.78,0.0,1014.28,360.0
2019-12-22 05:50,50.63043,-96.980745,3.5,4.8,76,985.38,-8.6,96,0.78,0.0,1014.11,360.0
2019-12-22 06:00,50.6304616666667,-96.980805,3.3,4.3,81,985.19,-8.6,96,0.78,0.0,1013.91,281.8
2019-12-22 06:10,50.6304333333333,-96.9807383333333,3.6,4.4,98,985.06,-8.6,95,0.78,0.0,1013.77,281.8
2019-12-22 06:20,50.6304616666667,-96.98078,3.7,4.5,86,984.91,-8.6,95,0.78,0.0,1013.61,281.8
2019-12-22 06:30,50.6304583333333,-96.9807733333333,3.9,4.8,83,984.85,-8.7,94,0.78,0.0,1013.55,281.8
2019-12-22 06:40,50.6304583333333,-96.9807716666667,3.6,4.6,72,984.87,-8.8,95,0.78,0.0,1013.57,281.8
2019-12-22 06:50,50.6304566666667,-96.98077,1.3,2.7,63,985.13,-8.8,95,0.79,0.0,1013.84,281.8
2019-12-22 07:00,50.6304566666667,-96.9807716666667,1.6,2.2,66,985.07,-8.8,95,0.78,0.0,1013.78,360.0
2019-12-22 07:10,50.6304583333333,-96.9807733333333,2.2,3.5,74,984.96,-8.8,96,0.78,0.0,1013.66,360.0
2019-12-22 07:20,50.6304583333333,-96.9807733333333,3.8,4.6,59,984.66,-8.9,96,0.79,0.0,1013.36,360.0
2019-12-22 07:30,50.6304783333333,-96.9808,3.2,3.7,69,984.61,-9.0,97,0.79,0.0,1013.31,360.0
2019-12-22 07:40,50.6304666666667,-96.9807683333333,3.0,3.8,86,984.27,-8.9,96,0.79,0.0,1012.97,360.0
2019-12-22 07:50,50.630465,-96.98077,2.7,3.9,85,984.23,-8.9,96,0.79,0.0,1012.92,360.0
2019-12-22 08:00,50.6304633333333,-96.9807666666667,2.8,3.8,88,984.06,-8.8,96,0.82,0.0,1012.74,360.0
2019-12-22 08:10,50.63045,-96.980765,3.5,4.8,85,983.89,-8.8,96,0.83,0.0,1012.57,360.0
2019-12-22 08:20,50.63049,-96.980805,4.6,5.3,81,983.81,-8.8,96,0.83,0.0,1012.49,360.0
2019-12-22 08:30,50.6304566666667,-96.9807716666667,4.5,5.9,89,983.53,-8.8,96,0.82,0.0,1012.21,360.0
2019-12-22 08:40,50.6304616666667,-96.9807733333333,4.9,6.2,96,983.27,-8.8,95,0.82,0.0,1011.93,360.0
2019-12-22 08:50,50.630465,-96.98077,5.0,5.9,100,983.04,-8.8,96,0.81,0.0,1011.70,360.0
2019-12-22 09:00,50.63045,-96.9807666666667,4.5,5.7,108,982.96,-8.7,96,0.82,0.0,1011.62,112.7
2019-12-22 09:10,50.6304383333333,-96.9807633333333,4.0,5.0,116,983.04,-8.7,96,0.82,0.0,1011.70,112.7
2019-12-22 09:20,50.6304583333333,-96.980765,3.7,4.7,112,982.94,-8.7,95,0.84,0.0,1011.60,112.7
2019-12-22 09:30,50.6304566666667,-96.9807666666667,4.1,5.1,107,982.75,-8.7,95,0.85,0.0,1011.40,112.7
2019-12-22 09:40,50.6304566666667,-96.9807516666667,4.5,5.6,108,982.48,-8.6,95,0.84,0.0,1011.12,112.7
2019-12-22 09:50,50.630455,-96.9807533333333,4.1,5.2,105,982.31,-8.6,95,0.83,0.0,1010.95,112.7
2019-12-22 10:00,50.6304566666667,-96.9807616666667,3.9,4.6,115,982.10,-8.6,96,0.82,0.0,1010.73,90.0
2019-12-22 10:10,50.6304583333333,-96.9807566666667,4.6,5.9,107,981.65,-8.6,96,0.82,0.0,1010.26,90.0
2019-12-22 10:20,50.630455,-96.98076,6.2,7.7,119,981.29,-8.6,97,0.81,0.0,1009.89,90.0
2019-12-22 10:30,50.630455,-96.9807616666667,7.4,8.6,131,981.08,-8.6,97,0.79,0.0,1009.67,90.0
2019-12-22 10:40,50.630465,-96.9807916666667,7.7,9.5,132,980.76,-8.7,97,0.79,0.0,1009.35,90.0
2019-12-22 10:50,50.630425,-96.9807716666667,6.5,8.8,138,980.57,-9.1,97,0.78,0.0,1009.17,90.0
2019-12-22 11:00,50.6304516666667,-96.980765,8.8,11.0,149,980.28,-9.5,97,0.78,0.0,1008.89,360.0
2019-12-22 11:10,50.6304533333333,-96.980765,10.5,13.1,147,979.84,-9.4,97,0.78,0.0,1008.43,360.0
2019-12-22 11:20,50.630455,-96.9807633333333,7.7,9.2,158,979.83,-9.4,97,0.78,0.0,1008.43,360.0
2019-12-22 11:30,50.630455,-96.9807616666667,8.5,10.4,160,979.59,-9.4,97,0.78,0.0,1008.18,360.0
2019-12-22 11:40,50.6304533333333,-96.9807633333333,9.7,12.1,158,979.31,-9.4,98,0.78,0.0,1007.89,360.0
2019-12-22 11:50,50.6304533333333,-96.980765,8.9,10.7,165,979.24,-9.4,98,0.78,0.0,1007.81,360.0
2019-12-22 12:00,50.6304533333333,-96.9807666666667,8.6,10.2,168,979.22,-9.4,98,0.78,0.0,1007.79,90.0
2019-12-22 12:10,50.6304683333333,-96.98077,9.0,10.9,173,979.09,-9.4,98,0.78,0.0,1007.66,90.0
2019-12-22 12:20,50.6304583333333,-96.9807716666667,8.6,10.9,172,978.90,-9.4,97,0.79,0.0,1007.47,90.0
2019-12-22 12:30,50.6304483333333,-96.98076,8.9,10.4,176,978.98,-9.4,98,0.79,0.0,1007.55,90.0
2019-12-22 12:40,50.630485,-96.98077,8.5,10.9,177,978.84,-9.1,98,0.79,0.0,1007.41,90.0
2019-12-22 12:50,50.6304683333333,-96.98077,7.3,8.2,175,978.59,-9.2,98,0.79,0.0,1007.18,90.0
2019-12-22 13:00,50.6304483333333,-96.980745,7.7,9.3,172,978.29,-9.1,99,0.79,0.0,1006.86,119.2
2019-12-22 13:10,50.6304566666667,-96.98077,8.6,10.2,165,977.88,-9.0,99,0.78,0.0,1006.44,119.2
2019-12-22 13:20,50.630455,-96.9807666666667,8.9,11.7,172,977.66,-8.7,99,0.78,0.0,1006.19,119.2
2019-12-22 13:30,50.6304533333333,-96.98077,6.1,8.2,187,977.91,-8.5,99,0.78,0.0,1006.44,119.2
2019-12-22 13:40,50.6304533333333,-96.9807716666667,4.9,7.3,188,977.86,-8.4,99,0.78,0.0,1006.38,119.2
2019-12-22 13:50,50.6304583333333,-96.9807783333333,9.5,12.9,194,977.69,-8.1,99,0.78,0.0,1006.19,119.2
2019-12-22 14:00,50.6304566666667,-96.9807716666667,9.5,12.3,188,977.55,-8.3,99,0.77,0.0,1006.05,270.0
2019-12-22 14:10,50.6304733333333,-96.980805,8.8,10.8,181,977.24,-8.5,99,0.78,0.0,1005.75,270.0
2019-12-22 14:20,50.6304516666667,-96.9807766666667,8.5,11.0,190,977.28,-8.6,99,0.78,0.0,1005.80,270.0
2019-12-22 14:30,50.630445,-96.9807666666667,10.6,12.9,185,977.13,-8.6,99,0.77,0.0,1005.63,270.0
2019-12-22 14:40,50.6304433333333,-96.9807683333333,10.6,13.6,189,977.17,-8.6,99,0.77,0.0,1005.67,270.0
2019-12-22 14:50,50.6304433333333,-96.9807666666667,10.3,13.6,187,976.91,-8.6,99,0.77,0.0,1005.40,270.0
2019-12-22 15:00,50.630445,-96.9807683333333,10.2,13.3,183,976.66,-8.4,99,0.77,0.0,1005.12,360.0
2019-12-22 15:10,50.630445,-96.9807683333333,11.3,13.8,181,976.58,-8.1,99,0.76,0.0,1005.01,360.0
2019-12-22 15:20,50.6304466666667,-96.9807683333333,12.5,17.1,184,976.56,-8.0,99,0.76,0.0,1004.97,360.0
2019-12-22 15:30,50.6304266666667,-96.980775,13.6,17.9,188,976.51,-7.7,98,0.76,0.0,1004.90,360.0
2019-12-22 15:40,50.63044,-96.9807833333333,13.7,17.3,188,976.43,-7.5,97,0.76,0.0,1004.79,360.0
2019-12-22 15:50,50.630445,-96.9807766666667,14.5,17.4,184,976.23,-7.3,96,0.76,0.0,1004.59,360.0
2019-12-22 16:00,50.6304466666667,-96.9807766666667,12.8,16.6,191,976.47,-7.1,95,0.76,0.0,1004.83,270.0
2019-12-22 16:10,50.6304466666667,-96.98078,11.5,14.1,198,976.71,-7.0,94,0.75,0.0,1005.08,270.0
2019-12-22 16:20,50.6304433333333,-96.98078,10.8,14.2,208,977.31,-6.9,93,0.75,0.0,1005.70,270.0
2019-12-22 16:30,50.6304466666667,-96.9807683333333,9.0,12.9,206,977.58,-7.1,93,0.75,0.0,1005.98,270.0
2019-12-22 16:40,50.6304483333333,-96.980765,8.0,11.2,197,977.24,-7.1,93,0.75,0.0,1005.63,270.0
2019-12-22 16:50,50.6304483333333,-96.9807666666667,6.7,9.1,190,977.05,-6.7,92,0.75,0.0,1005.41,270.0
2019-12-22 17:00,50.6304466666667,-96.9807666666667,6.7,9.3,204,977.17,-6.4,92,0.75,0.0,1005.50,131.7
2019-12-22 17:10,50.6304566666667,-96.9807766666667,5.9,7.3,209,977.29,-6.0,91,0.75,0.0,1005.58,131.7
2019-12-22 17:20,50.630455,-96.9807783333333,5.9,7.5,208,977.25,-5.6,91,0.75,0.0,1005.51,131.7
2019-12-22 17:30,50.6304583333333,-96.9807816666667,5.5,9.1,201,977.08,-5.3,91,0.74,0.0,1005.31,131.7
2019-12-22 17:40,50.6304333333333,-96.9807866666667,4.1,6.2,217,977.36,-4.8,90,0.76,0.0,1005.56,131.7
2019-12-22 17:50,50.6304616666667,-96.980765,4.8,8.1,225,977.26,-3.7,87,0.78,0.0,1005.38,131.7
2019-12-22 18:00,50.6304283333333,-96.980775,6.6,9.7,229,977.20,-2.5,82,0.78,0.0,1005.25,203.5
2019-12-22 18:10,50.63044,-96.9807683333333,6.7,10.0,243,977.14,-1.9,80,0.79,0.0,1005.16,203.5
2019-12-22 18:20,50.6304416666667,-96.9807683333333,8.6,11.4,234,977.28,-1.4,78,0.78,0.0,1005.29,203.5
2019-12-22 18:30,50.6304433333333,-96.9807683333333,8.2,11.4,238,977.38,-1.0,77,0.78,0.0,1005.36,203.5
2019-12-22 18:40,50.630445,-96.9807683333333,8.0,10.8,237,977.37,-0.6,77,0.80,0.0,1005.32,203.5
2019-12-22 18:50,50.6304633333333,-96.9807933333333,8.2,12.0,238,977.33,-0.6,77,0.79,0.0,1005.26,203.5
2019-12-22 19:00,50.6304533333333,-96.98078,7.6,10.5,238,977.46,-0.3,76,0.79,0.0,1005.36,299.2
2019-12-22 19:10,50.6304533333333,-96.9807783333333,7.2,11.0,241,977.49,-0.1,75,0.78,0.0,1005.35,299.2
2019-12-22 19:20,50.63045,-96.9807766666667,6.2,11.3,239,977.47,0.3,74,0.79,0.0,1005.30,299.2
2019-12-22 19:30,50.6304483333333,-96.980775,6.9,10.1,244,977.77,0.9,73,0.79,0.0,1005.55,299.2
2019-12-22 19:40,50.63045,-96.9807783333333,6.3,9.9,242,977.95,1.0,73,0.80,0.0,1005.67,299.2
2019-12-22 19:50,50.6304533333333,-96.9807833333333,6.0,8.8,257,978.06,1.0,73,0.80,0.0,1005.72,299.2
2019-12-22 20:00,50.6304466666667,-96.9807733333333,6.3,9.0,257,978.20,1.0,73,0.81,0.0,1005.84,270.0
2019-12-22 20:10,50.6304466666667,-96.9807733333333,7.0,9.9,262,978.38,1.2,74,0.81,0.0,1005.99,270.0
2019-12-22 20:20,50.6304466666667,-96.9807733333333,6.9,10.9,257,978.74,1.4,74,0.81,0.0,1006.32,270.0
2019-12-22 20:30,50.6304466666667,-96.980775,10.2,20.9,285,978.86,1.6,76,0.81,0.0,1006.42,270.0
2019-12-22 20:40,50.6304483333333,-96.9807733333333,12.1,21.9,282,979.07,1.1,79,0.80,0.0,1006.66,270.0
2019-12-22 20:50,50.6304483333333,-96.9807733333333,11.1,18.0,290,979.37,0.7,80,0.80,0.0,1006.97,270.0
2019-12-22 21:00,50.6304666666667,-96.980765,14.2,20.1,293,979.42,0.3,80,0.81,0.0,1007.03,360.0
2019-12-22 21:10,50.630445,-96.980785,12.2,18.6,294,979.81,0.1,81,0.82,0.0,1007.42,360.0
2019-12-22 21:20,50.6304433333333,-96.980785,14.0,22.3,293,980.00,-0.2,81,0.81,0.0,1007.61,360.0
2019-12-22 21:30,50.630445,-96.98078,11.5,19.0,297,980.26,-0.4,81,0.80,0.0,1007.88,360.0
2019-12-22 21:40,50.630445,-96.9807783333333,12.1,18.7,297,980.45,-0.7,81,0.79,0.0,1008.08,360.0
2019-12-22 21:50,50.6304516666667,-96.9807983333333,10.7,16.1,293,980.88,-0.8,81,0.79,0.0,1008.54,360.0
2019-12-22 22:00,50.6304483333333,-96.9807816666667,10.0,14.6,293,981.22,-1.0,81,0.79,0.0,1008.88,142.0
2019-12-22 22:10,50.6304516666667,-96.9807816666667,10.3,16.3,292,981.43,-1.2,81,0.79,0.0,1009.10,142.0
2019-12-22 22:20,50.6304516666667,-96.98078,10.5,16.8,297,981.62,-1.4,81,0.79,0.0,1009.30,142.0
2019-12-22 22:30,50.6304516666667,-96.980775,9.4,14.5,285,982.19,-1.7,82,0.79,0.0,1009.92,142.0
2019-12-22 22:40,50.63045,-96.9807716666667,10.0,18.2,293,982.44,-1.8,82,0.80,0.0,1010.20,142.0
2019-12-22 22:50,50.630435,-96.98076,12.1,19.2,310,982.40,-2.0,81,0.81,0.0,1010.20,142.0
2019-12-22 23:00,50.6304483333333,-96.98076,12.1,19.6,305,982.77,-2.2,81,0.82,0.0,1010.60,90.0
2019-12-22 23:10,50.6304533333333,-96.9807633333333,12.5,20.1,303,983.17,-2.4,81,0.82,0.0,1011.04,90.0
2019-12-22 23:20,50.63045,-96.9807633333333,10.8,16.0,304,983.52,-2.5,82,0.82,0.0,1011.42,90.0
2019-12-22 23:30,50.6304516666667,-96.9807666666667,10.3,15.0,315,983.54,-2.9,82,0.82,0.0,1011.46,90.0
